• In Hungary
  • List of Countries
  • For 7 days
  • Water Temperature
  • Satellite Maps
  • Weather Map
  • News
  • Weather Widgets
  • user-avatar
    Login

    Hourly Weather Lahaur

    Today, 19 July, Thursday

    Time Temperature Precipitation Wind Pressure Humidity
    00:00 +37°C° 0 mm 2 mps 731 mmHg 49%
    01:00 +37°C° 0 mm 2 mps 731 mmHg 50%
    02:00 +36°C° 0 mm 2 mps 731 mmHg 51%
    03:00 +36°C° 0 mm 2 mps 730 mmHg 52%
    04:00 +35°C° 0 mm 2 mps 730 mmHg 54%
    05:00 +34°C° 0 mm 1 mps 731 mmHg 52%
    06:00 +36°C° 0.1 mm 2 mps 731 mmHg 50%
    07:00 +37°C° 0.1 mm 2 mps 731 mmHg 48%
    08:00 +38°C° 0.1 mm 2 mps 732 mmHg 46%
    09:00 +39°C° 0 mm 2 mps 732 mmHg 42%
    10:00 +41°C° 0 mm 1 mps 731 mmHg 38%
    11:00 +39°C° 0 mm 0 mps 731 mmHg 34%
    12:00 +39°C° 0 mm 0 mps 731 mmHg 34%
    13:00 +39°C° 0 mm 0 mps 730 mmHg 33%
    14:00 +39°C° 0 mm 0 mps 730 mmHg 33%
    15:00 +42°C° 0 mm 1 mps 729 mmHg 32%
    16:00 +42°C° 0 mm 1 mps 729 mmHg 32%
    17:00 +43°C° 0 mm 1 mps 729 mmHg 31%
    18:00 +42°C° 0 mm 1 mps 728 mmHg 33%
    19:00 +41°C° 0 mm 1 mps 728 mmHg 34%
    20:00 +41°C° 0 mm 1 mps 728 mmHg 35%
    21:00 +40°C° 0 mm 1 mps 728 mmHg 36%
    22:00 +40°C° 0 mm 1 mps 728 mmHg 37%
    23:00 +39°C° 0 mm 1 mps 728 mmHg 39%

    Tomorrow, 20 July, Friday

    Time Temperature Precipitation Wind Pressure Humidity
    00:00 +39°C° 0 mm 2 mps 728 mmHg 40%
    01:00 +38°C° 0 mm 2 mps 728 mmHg 41%
    02:00 +38°C° 0 mm 2 mps 728 mmHg 42%
    03:00 +38°C° 0 mm 2 mps 728 mmHg 44%
    04:00 +37°C° 0 mm 2 mps 728 mmHg 45%
    05:00 +37°C° 0 mm 2 mps 728 mmHg 46%
    06:00 +38°C° 0 mm 2 mps 728 mmHg 43%
    07:00 +39°C° 0 mm 2 mps 729 mmHg 41%
    08:00 +40°C° 0 mm 2 mps 729 mmHg 39%
    09:00 +42°C° 0 mm 2 mps 729 mmHg 35%
    10:00 +43°C° 0 mm 1 mps 729 mmHg 32%
    11:00 +45°C° 0 mm 1 mps 729 mmHg 28%
    12:00 +44°C° 0 mm 1 mps 729 mmHg 29%
    13:00 +44°C° 0 mm 1 mps 728 mmHg 29%
    14:00 +44°C° 0 mm 1 mps 728 mmHg 29%
    15:00 +44°C° 0 mm 1 mps 727 mmHg 29%
    16:00 +44°C° 0 mm 1 mps 727 mmHg 28%
    17:00 +44°C° 0 mm 1 mps 727 mmHg 28%
    18:00 +44°C° 0 mm 1 mps 727 mmHg 29%
    19:00 +43°C° 0 mm 1 mps 727 mmHg 30%
    20:00 +42°C° 0 mm 2 mps 727 mmHg 32%
    21:00 +42°C° 0 mm 2 mps 727 mmHg 33%
    22:00 +41°C° 0 mm 2 mps 727 mmHg 34%
    23:00 +40°C° 0 mm 2 mps 727 mmHg 35%

    Day after tomorrow, 21 July, Saturday

    Time Temperature Precipitation Wind Pressure Humidity
    00:00 +40°C° 0 mm 2 mps 727 mmHg 36%
    01:00 +40°C° 0 mm 2 mps 727 mmHg 37%
    02:00 +39°C° 0 mm 2 mps 727 mmHg 38%
    03:00 +39°C° 0 mm 2 mps 727 mmHg 38%
    04:00 +39°C° 0 mm 2 mps 728 mmHg 39%
    05:00 +39°C° 0 mm 2 mps 728 mmHg 40%
    06:00 +39°C° 0 mm 2 mps 728 mmHg 40%
    07:00 +39°C° 0 mm 2 mps 728 mmHg 40%
    08:00 +40°C° 0 mm 2 mps 729 mmHg 40%
    09:00 +41°C° 0 mm 2 mps 729 mmHg 38%
    10:00 +42°C° 0 mm 1 mps 729 mmHg 35%
    11:00 +43°C° 0 mm 1 mps 729 mmHg 33%
    12:00 +44°C° 0 mm 1 mps 729 mmHg 32%
    13:00 +45°C° 0 mm 2 mps 728 mmHg 30%
    14:00 +46°C° 0 mm 2 mps 728 mmHg 28%
    15:00 +46°C° 0 mm 2 mps 727 mmHg 29%
    16:00 +45°C° 0 mm 2 mps 727 mmHg 29%
    17:00 +45°C° 0 mm 2 mps 727 mmHg 29%
    18:00 +45°C° 0 mm 2 mps 727 mmHg 31%
    19:00 +43°C° 0 mm 2 mps 728 mmHg 32%
    20:00 +42°C° 0 mm 2 mps 728 mmHg 34%
    21:00 +42°C° 0 mm 3 mps 728 mmHg 35%
    22:00 +42°C° 0 mm 3 mps 728 mmHg 37%
    23:00 +40°C° 0 mm 3 mps 728 mmHg 38%

    22 July, Sunday

    Time Temperature Precipitation Wind Pressure Humidity
    00:00 +40°C° 0 mm 3 mps 727 mmHg 40%
    01:00 +39°C° 0 mm 3 mps 727 mmHg 42%
    02:00 +40°C° 0 mm 4 mps 727 mmHg 44%
    03:00 +38°C° 0 mm 3 mps 727 mmHg 46%
    04:00 +38°C° 0 mm 3 mps 727 mmHg 48%
    05:00 +37°C° 0 mm 3 mps 726 mmHg 50%
    06:00 +38°C° 0 mm 3 mps 727 mmHg 47%
    07:00 +39°C° 0 mm 3 mps 727 mmHg 44%
    08:00 +40°C° 0 mm 3 mps 727 mmHg 41%
    09:00 +42°C° 0 mm 3 mps 728 mmHg 38%
    10:00 +43°C° 0 mm 2 mps 728 mmHg 34%
    11:00 +45°C° 0 mm 2 mps 728 mmHg 31%
    12:00 +43°C° 0.1 mm 2 mps 728 mmHg 32%
    13:00 +44°C° 0.1 mm 3 mps 727 mmHg 34%
    14:00 +43°C° 0.1 mm 4 mps 727 mmHg 35%
    15:00 +43°C° 0.1 mm 5 mps 727 mmHg 38%
    16:00 +42°C° 0.1 mm 5 mps 727 mmHg 42%
    17:00 +41°C° 0.1 mm 6 mps 726 mmHg 45%
    18:00 +40°C° 0 mm 6 mps 727 mmHg 50%
    19:00 +38°C° 0 mm 7 mps 727 mmHg 55%
    20:00 +36°C° 0 mm 7 mps 728 mmHg 59%
    21:00 +35°C° 0.7 mm 7 mps 728 mmHg 64%
    22:00 +34°C° 0.7 mm 7 mps 728 mmHg 68%
    23:00 +33°C° 0.7 mm 7 mps 729 mmHg 73%

    23 July, Monday

    Time Temperature Precipitation Wind Pressure Humidity
    00:00 +33°C° 1.1 mm 6 mps 729 mmHg 74%
    01:00 +32°C° 1.1 mm 5 mps 728 mmHg 76%
    02:00 +32°C° 1.1 mm 5 mps 728 mmHg 77%
    03:00 +32°C° 0.2 mm 5 mps 728 mmHg 77%
    04:00 +32°C° 0.2 mm 4 mps 728 mmHg 78%
    05:00 +32°C° 0.2 mm 4 mps 728 mmHg 78%
    06:00 +32°C° 0.4 mm 4 mps 729 mmHg 78%
    07:00 +32°C° 0.4 mm 4 mps 729 mmHg 78%
    08:00 +32°C° 0.4 mm 4 mps 730 mmHg 78%
    09:00 +31°C° 4.2 mm 3 mps 730 mmHg 79%
    10:00 +31°C° 4.2 mm 3 mps 730 mmHg 79%
    11:00 +31°C° 4.2 mm 2 mps 730 mmHg 80%
    12:00 +31°C° 3.2 mm 3 mps 730 mmHg 79%
    13:00 +31°C° 3.2 mm 3 mps 730 mmHg 78%
    14:00 +33°C° 3.2 mm 3 mps 729 mmHg 77%
    15:00 +33°C° 0.1 mm 3 mps 729 mmHg 76%
    16:00 +33°C° 0.1 mm 4 mps 729 mmHg 74%
    17:00 +34°C° 0.1 mm 4 mps 729 mmHg 72%
    18:00 +33°C° 0 mm 3 mps 729 mmHg 74%
    19:00 +33°C° 0 mm 3 mps 729 mmHg 77%
    20:00 +31°C° 0 mm 3 mps 729 mmHg 79%
    21:00 +31°C° 0.1 mm 3 mps 730 mmHg 80%
    22:00 +30°C° 0.1 mm 3 mps 730 mmHg 81%
    23:00 +30°C° 0.1 mm 3 mps 730 mmHg 82%

    24 July, Tuesday

    Time Temperature Precipitation Wind Pressure Humidity
    00:00 +30°C° 1 mm 2 mps 730 mmHg 83%
    01:00 +30°C° 1 mm 2 mps 730 mmHg 84%
    02:00 +29°C° 1 mm 2 mps 730 mmHg 84%
    03:00 +29°C° 0.4 mm 2 mps 730 mmHg 84%
    04:00 +29°C° 0.4 mm 2 mps 730 mmHg 84%
    05:00 +29°C° 0.4 mm 2 mps 730 mmHg 84%
    06:00 +30°C° 0.5 mm 2 mps 730 mmHg 82%
    07:00 +30°C° 0.5 mm 2 mps 731 mmHg 80%
    08:00 +30°C° 0.5 mm 2 mps 731 mmHg 79%
    09:00 +32°C° 0.8 mm 2 mps 731 mmHg 74%
    10:00 +33°C° 0.8 mm 1 mps 731 mmHg 69%
    11:00 +34°C° 0.8 mm 1 mps 731 mmHg 64%
    12:00 +35°C° 1 mm 1 mps 731 mmHg 61%
    13:00 +36°C° 1 mm 1 mps 730 mmHg 58%
    14:00 +36°C° 1 mm 1 mps 730 mmHg 55%
    15:00 +36°C° 1 mm 1 mps 730 mmHg 55%
    16:00 +36°C° 1 mm 1 mps 729 mmHg 56%
    17:00 +36°C° 1 mm 1 mps 729 mmHg 56%
    18:00 +35°C° 0 mm 1 mps 729 mmHg 59%
    19:00 +36°C° 0 mm 2 mps 730 mmHg 63%
    20:00 +35°C° 0 mm 2 mps 730 mmHg 66%
    21:00 +34°C° 0.4 mm 2 mps 730 mmHg 68%
    22:00 +34°C° 0.4 mm 2 mps 730 mmHg 70%
    23:00 +33°C° 0.4 mm 3 mps 730 mmHg 73%
    Show more